Location: ???
(35.5616°N, 139.7977°E)
Time: 19:39:40
(UTC+00:00)

Cosmos 1869 - Pass Details

Date: 17 November 2025
Orbit: 453 x 481 km, 82.5° (Epoch: 08 December)

Event Time Altitude Azimuth Distance (km) Brightness Sun altitude
Exits shadow 19:16:06 42° 119° (ESE) 668 4.1 -24.9°
Drops below altitude 10° 19:18:49 10° 158° (SSE) 1,596 6.0 -24.4°
Sets 19:20:55 0° 163° (SSE) 2,470 7.0 -24.0°
